Regional Weather Roundup
Issued by NWS

Home | Current Version | Previous Version | Graphics & Text | Print | Product List | Glossary Off
Versions: 1 2 3 4 5 6 7 8 9 10 11 12 13 14 15 16 17 18 19 20 21 22 23 24 25 26 27 28 29 30 31 32 33 34 35 36 37 38 39 40 41 42 43 44 45 46 47 48 49 50

000
ASUS43 KDTX 182210
RWRMI
MICHIGAN HOURLY REGIONAL WEATHER ROUNDUP
NATIONAL WEATHER SERVICE DETROIT/PONTIAC MI
500 PM EST THU DEC 18 2014

NOTE: "FAIR" INDICATES FEW OR NO CLOUDS BELOW 12,000 FEET WITH NO
SIGNIFICANT WEATHER AND/OR OBSTRUCTION TO VISIBILITY.

MIZ047>049-052>055-059>063-066>070-074>076-081>083-182300-
SOUTHEAST LOWER MICHIGAN

CITY           SKY/WX    TMP DP  RH WIND       PRES   REMARKS
ADRIAN         CLOUDY    30  26  85 NW10      30.18S
ALMA           CLOUDY    30  26  86 NW6       30.17S
ANN ARBOR      CLOUDY    31  28  89 W8        30.16S
BAD AXE        CLOUDY    25  23  90 N6        30.18R
DETROIT CITY   CLOUDY    34  27  75 W5        30.17R
DETROIT        CLOUDY    33  26  75 W7        30.18R
FLINT          CLOUDY    31  28  89 NW8       30.16S
GROSSE ILE     CLOUDY    32  28  86 W6        30.16S
HILLSDALE      CLOUDY    29  27  92 W5        30.16S
HOWELL         CLOUDY    31  29  93 NW6       30.15S FOG

CITY           SKY/WX    TMP DP  RH WIND       PRES   REMARKS
JACKSON        CLOUDY    30  26  85 W6        30.16S
LAMBERTVILLE   CLOUDY    32  28  86 W6        30.18S
LANSING        FRZ RAIN  31  29  92 N3        30.17S
LAPEER         NOT AVBL
MASON          CLOUDY    30  28  92 W7        30.16S FOG
MONROE         CLOUDY    32  28  86 W3        30.16S
MT. CLEMENS    FLURRIES  30  30 100 CALM      30.14S
PONTIAC        CLOUDY    30  28  92 NW5       30.13F
PORT HOPE        N/A     27  21  78 NW8       30.16R
PORT HURON     CLOUDY    30  27  86 NW7       30.17S
TRI CITIES     CLOUDY    30  23  75 N8        30.19R
$$
MIZ043>046-050>051-056>058-064>065-071>073-077>080-182300-
SOUTHWEST LOWER MICHIGAN

CITY           SKY/WX    TMP DP  RH WIND       PRES   REMARKS
BATTLE CREEK   CLOUDY    30  25  81 W7        30.18S
BENTON HARBOR  CLOUDY    28  22  78 SW15      30.22S
BIG RAPIDS     CLOUDY    28  26  91 CALM      30.16S
COLDWATER      CLOUDY    29  26  89 W7        30.18S
HOLLAND        CLOUDY    33  30  88 SW3       30.18S
GRAND RAPIDS   FRZ DRZL  31  28  89 SW7       30.17S FOG
KALAMAZOO      CLOUDY    29  23  78 W9        30.19R
MARSHALL       CLOUDY    28  25  88 W6        30.17R
MUSKEGON       CLOUDY    33  27  78 NW6       30.18S HAZE
$$
MIZ016>042-182300-
NORTHERN LOWER MICHIGAN

CITY           SKY/WX    TMP DP  RH WIND       PRES   REMARKS
ALPENA         MOCLDY    24  18  77 NW7       30.20R
BEAVER ISLAND  CLEAR     23  15  69 CALM      30.23S
BELLAIRE       CLEAR     25  17  71 N3        30.22R
CADILLAC       CLOUDY    25  19  79 NW7       30.14S
CHARLEVOIX     CLEAR     24  14  65 NE7       30.25R
FRANKFORT      CLEAR     27  22  79 NE6       30.21R
GAYLORD        CLEAR     21  16  81 NE5       30.16R
GRAYLING       CLEAR     23  19  85 NW5       30.16S
HARBOR SPRINGS CLEAR     21   9  60 N3        30.23R
HOUGHTON LAKE  CLOUDY    25  19  78 NW7       30.16R
MANISTEE       CLEAR     28  18  64 N5        30.20S
OSCODA         CLOUDY    25  20  83 NW9       30.19R
PELLSTON       CLEAR     20   8  60 CALM      30.23R
TRAVERSE CITY  MOCLDY    28  21  75 N8        30.20R
$$
MIZ007>008-015-182300-
EASTERN UPPER MICHIGAN

CITY           SKY/WX    TMP DP  RH WIND       PRES   REMARKS
KINROSS        CLEAR     18  14  86 NW5       30.21S
MACKINAC ISLAN CLEAR     22  14  72 N6        30.22R
NEWBERRY       CLEAR     21  17  81 N5        30.22S
S. S. MARIE    CLEAR     21  10  62 NW6       30.20R
$$
MIZ004>006-011>014-085-182300-
CENTRAL UPPER MICHIGAN

CITY           SKY/WX    TMP DP  RH WIND       PRES   REMARKS
MANISTIQUE     CLEAR     24  18  76 N5        30.24R
ESCANABA       PTCLDY    28  16  59 N5        30.24S
MENOMINEE      PTCLDY    28  12  50 NE5       30.23S
SAWYER-GWINN   CLEAR     23  16  74 N7        30.23R
$$
MIZ001>003-009>011-084-182300-
WESTERN UPPER MICHIGAN

CITY           SKY/WX    TMP DP  RH WIND       PRES   REMARKS
IRON MOUNTAIN  CLEAR     24  15  68 N3        30.21S
HOUGHTON       CLEAR     25  16  68 CALM      30.25R
COPPER HARBOR    N/A     28  18  66 E6        30.28R
IRONWOOD       CLEAR     25  18  74 CALM      30.21S
$$

ABBREVIATIONS USED IN REMARKS
   TC - TEMPERATURE IN CELSIUS
  WCI - WIND CHILL INDEX
   HX - HEAT INDEX
  VSB - VISIBILITY




USA.gov is the U.S. government's official web portal to all federal, state and local government web resources and services.